FREGAT R/B, 43509

Orbit data source: Space-Track

FREGAT R/B, 43509 is space debris in MEO originally from a launch on Sat, 16 Jun 2018 UTC launched from the Plesetsk Missile And Space Complex (PKMTR). Debris objects in space refer to the collection of defunct objects orbiting the Earth. Examples of debris include non-operational satellites, rocket bodies, and fragments generated from explosions, collisions, or faulty payload assembly.

Loading next visibility...
Identifier
43509, 2018-053B
Orbit
MEO
Country
Flag of CISCIS
Related business
Manufacturer
Lavochkin
Mission
Spacecraft
Bus & Motor
FREGAT, Unknown motor
Mass
1,000 kg wet, 1,000 kg dry
Launch date (UTC)
2018-06-16 (7 years ago)
Launch vehicle
Unknown
Launch site
Plesetsk Missile And Space Complex (PKMTR)
Object type
Payload
Rocket body
Debris
Shape & HBR
Irr, 1.7 m
Radar Cross Section
12.110 m², Large (>1 m²)

Expand to show TLE details & history
Last TLE update: 1 day ago

TLE from 1 day ago
0 FREGAT R/B
1 43509U 18053B   25257.99856690  .00000038  00000-0  00000-0 0  9992
2 43509  65.4409  86.8465 0095629  91.6860 269.4681  2.09215746 55382
Epoch: 2025-09-14T23:57Z
TLE epoch observation values (Epoch: 2025-09-14T23:57:56.18Z)
Latitude
0.00004°
Longitude
93.15022°
Altitude
19,450.233 km
Speed
3.928 km/s
True Right ascension
05h 47m 22s
True Declination
0° 00' 00"
Sunlit
Object was in daylight at epoch
Visualization orbit readout
Latitude
Unknown
Longitude
Unknown
Altitude
Unknown
Speed
Unknown
Apparent Right ascension
Unknown
Apparent Declination
Unknown
Sunlit
N/A
Visualization observer readout
Local Sidereal Time
22:17:58
Azimuth
Unknown
Elevation
Unknown
Doppler factor
Unknown
Orbital elements
Apogee altitude
19,691.341 km
Perigee altitude
19,197.464 km
Semi-major axis
25,822.54 km
Eccentricity
0.00956
Inclination
65.4409°
RAAN
86.8465°
Arg. of periapsis
91.686°
True anomaly
268.37251°
Mean anomaly
269.4681°
Eccentric anomaly
268.92028°
Mean motion
0.52305 °/min
Orbital period
688.27 mins
BSTAR
0
Loading maneuver chart data...
Computing Atmospheric mass density...
Loading historical data...
Loading historical data...
Loading historical data...
Loading historical data...
Loading historical data...
Loading historical data...
Loading historical data...
Other satellites on launch #53 in the year 2018 (2018-06-16 UTC)

Documentation

Showing up to 5 results
|